Location: *
(43.0333°N, 0.0333°W)
Time: 04:57:37
(UTC+00:00)

Daily predictions for brighter satellites

Satellite Brightness Start Highest point End
(mag) Time Altitude Azimuth Time Altitude Azimuth Time Altitude Azimuth
CENTAUR R/B 3.8 03:15:46 52° E 03:15:46 52° E 03:22:38 10° SE
ATLAS 2AS CENTAUR R/B 3.7 03:33:37 47° SE 03:34:29 49° ESE 03:41:59 10° NE
Lacrosse 5 4.2 03:41:28 20° ENE 03:41:28 20° ENE 03:43:08 10° ENE
Lacrosse 4 Rocket 4.5 03:43:36 12° ESE 03:43:36 12° ESE 03:44:05 10° ESE
CZ-4C R/B 3.5 03:59:29 33° ESE 03:59:29 33° ESE 04:04:17 10° NE
Atlas Centaur 2 3.9 04:23:03 25° S 04:23:44 25° S 04:28:35 10° SE
Cosmos 2263 Rocket 3.6 04:27:34 26° N 04:27:34 26° N 04:30:07 10° NNE
RESURS DK-1 3.8 04:28:16 35° ESE 04:28:22 35° ESE 04:32:10 10° NE
Cosmos 1151 Rocket 4.5 04:30:51 31° SE 04:30:51 31° SE 04:33:14 10° SSE
ALOS 3.7 04:28:08 10° NNE 04:30:26 29° NNE 04:30:26 29° NNE
ATLAS CENTAUR R/B 3.1 04:35:02 25° NE 04:35:02 25° NE 04:38:10 10° ESE
ATLAS 3B R/B 3.2 04:32:31 32° NNW 04:35:40 56° NE 04:42:43 10° SE
Gbstr 26 Del rocket 4.1 04:39:12 35° ENE 04:39:12 35° ENE 04:41:48 10° ESE
FENGYUN 3A 3.5 04:37:08 10° NNE 04:42:35 88° ESE 04:47:58 10° SSW
Meteor 1-26 Rocket 4.2 04:43:49 26° N 04:47:10 84° E 04:52:45 10° S
Cosmos 1328 Rocket 3.6 04:52:40 73° S 04:52:40 73° S 04:56:41 10° S
Milstar 3 Cent rocket 4.3 04:48:47 21° SW 04:52:30 31° S 05:02:56 10° ESE
Cosmos 990 Rocket 4.0 04:48:41 10° SSW 04:53:54 78° ESE 04:59:11 10° NNE
SAR-Lupe-4 4.4 04:53:26 10° SSE 04:56:53 49° ENE 04:57:25 45° NE
SJ 16-02 3.3 05:01:49 18° N 05:01:49 18° N 05:03:03 10° N
Cosmos 923 Rocket 3.9 04:59:45 56° NW 05:00:45 70° WSW 05:06:02 10° S
Cosmos 1943 4.1 05:04:17 31° SW 05:04:17 31° SW 05:08:01 10° S
CENTAUR R/B 3.6 05:03:00 36° W 05:04:30 39° WSW 05:12:29 10° S
Meteor 2-3 Rocket 3.7 04:59:13 10° SSW 05:04:52 62° WNW 05:10:38 10° N
NOSS 3-4 (A) 3.7 05:05:37 41° NW 05:05:57 42° NW 05:11:57 10° NNE
NOSS 3-4 (C) 3.7 05:05:42 41° NW 05:06:05 42° NW 05:12:05 10° NNE
Cosmos 158 Rocket 3.8 05:08:33 54° WNW 05:09:08 58° WSW 05:14:02 10° S
Genesis I 3.0 05:09:41 76° N 05:09:41 76° N 05:13:21 10° NNE
SAR-Lupe-1 4.1 05:10:17 10° SSE 05:13:50 78° ENE 05:14:53 44° N
Cosmos 1743 Rocket 3.9 05:11:50 10° S 05:16:13 66° E 05:20:40 10° NNE
Cosmos 1408 Rocket 3.5 05:12:59 10° SSW 05:17:23 62° W 05:21:49 10° N
Lacrosse 4 Rocket 2.7 05:19:57 26° SW 05:19:57 26° SW 05:22:42 10° S
METEOR-M 4.1 05:13:50 10° N 05:19:04 56° WNW 05:24:15 10° SSW
CRYOSAT 2 4.2 05:15:17 10° S 05:20:05 66° W 05:24:57 10° N
Cosmos 1862 3.9 05:16:36 10° S 05:20:36 60° E 05:24:35 10° NNE
CZ-4B R/B 3.1 05:16:04 10° NNE 05:20:36 83° ESE 05:24:56 10° SSW
Lacrosse 5 2.4 05:20:42 37° NW 05:21:21 39° NNW 05:26:07 10° NE
COSMO-SKYMED 1 2.4 05:18:34 10° S 05:22:54 77° WSW 05:26:03 19° NNW
GPS 2-04 Rocket1 4.2 05:23:30 23° SW 05:24:33 25° S 05:27:47 10° SE
ATLAS 2AS CENTAUR R/B 3.3 05:21:09 25° WSW 05:25:34 48° NW 05:33:07 10° NNE
Cosmos 1680 Rocket 3.6 05:25:39 28° NW 05:28:16 53° WSW 05:33:24 10° S
Cosmos 405 Rocket 2.9 05:24:48 10° S 05:28:27 66° E 05:32:11 10° NNE
Cosmos 2181 Rocket 4.2 05:27:07 10° NNW 05:32:54 43° W 05:38:35 10° SSW
FALCON 9 DEB 4.3 05:33:58 26° N 05:33:58 26° N 05:36:20 10° NE
ERS-2 3.5 05:30:36 10° SSW 05:32:33 23° SW 05:32:33 23° SW
Cosmos 1812 2.9 05:30:08 10° N 05:33:59 70° E 05:37:48 10° SSE
FALCON 9 DEB 4.2 05:34:39 27° N 05:34:39 27° N 05:37:05 10° NE
Cosmos 1805 Rocket 4.5 05:30:56 10° S 05:35:13 51° E 05:39:33 10° NNE
Cosmos 2154 Rocket 4.0 05:35:42 10° S 05:41:54 85° E 05:48:13 10° N
EO 1 Delta rocket 3.8 05:36:49 10° SSE 05:41:54 89° ENE 05:46:32 10° N
Cosmos 1844 Rocket 2.7 05:36:49 10° SW 05:42:24 61° WNW 05:48:02 10° NNE
SL-4 R/B 3.4 05:44:20 19° NNW 05:45:46 23° N 05:48:47 10° ENE
ADEOS 4.3 05:41:50 10° N 05:46:19 30° WNW 05:50:47 10° SW
CZ-4C R/B 2.6 05:44:44 21° W 05:47:40 39° NW 05:53:17 10° NNE
Cosmos 1782 3.7 05:47:19 27° WNW 05:47:48 27° W 05:51:13 10° SSW
deb Chang Zheng 4 4.2 05:43:59 10° N 05:47:51 32° WNW 05:51:41 10° SW
Cosmos 2112 Rocket 4.5 05:44:48 18° NW 05:48:19 41° WSW 05:53:18 10° S
Aureole 2 Rocket 1.5 05:46:12 10° SSW 05:48:41 62° WNW 05:51:14 10° NNE
Cosmos 1689 Rocket 2.4 05:46:11 10° S 05:48:53 38° W 05:49:22 35° WNW
Meteor PRIRODA 3.9 05:48:02 10° N 05:51:38 45° WNW 05:55:11 10° SW
BREEZE-M DEB (TANK) 3.2 05:50:47 19° WNW 05:55:25 61° SW 05:58:09 10° SE
Cosmos 1898 Rocket 4.1 05:51:43 10° SW 05:56:35 36° WNW 06:01:31 10° N
PSLV R/B 4.3 05:53:31 10° S 05:57:27 42° W 06:01:23 10° NNW
FALCON 9 DEB 4.4 05:56:50 20° NW 05:57:29 22° NNW 06:00:04 10° NE
EXPRESS MD2 4.4 05:55:41 19° NW 05:58:22 54° NNE 06:05:40 10° ESE
Cosmos 1844 3.7 05:54:09 10° SW 05:59:34 55° WNW 06:05:04 10° NNE
Cosmos 2327 Rocket 4.4 05:53:46 10° SSW 05:59:49 68° W 06:05:54 10° N
Cosmos 2074 Rocket 4.3 05:55:37 10° SSW 06:01:29 44° WNW 06:07:24 10° N
BREEZE-M DEB (TANK) 2.9 06:00:28 22° WNW 06:02:09 57° N 06:06:59 10° ENE
H-2A R/B 2.8 05:58:20 10° N 06:02:10 57° WNW 06:05:58 10° SSW
Envisat 3.1 05:57:58 10° NNE 06:03:05 84° ESE 06:08:09 10° SSW
MOS 1 Rocket 3.4 05:59:26 10° S 06:04:13 72° W 06:09:21 10° NNW
BREEZE M DEB (TANK) 2.7 05:57:31 10° WSW 06:06:01 88° SSE 06:08:52 10° ENE
RESURS DK-1 3.5 06:04:18 16° W 06:06:28 23° NW 06:09:49 10° N
CZ-4B DEB 4.3 06:01:01 10° NNE 06:06:31 85° ESE 06:11:59 10° SSW
Cosmos 1633 Rocket 4.4 06:03:50 10° SSE 06:08:02 44° E 06:12:14 10° NNE
Cosmos 1437 Rocket 2.6 06:05:02 10° NNW 06:08:49 73° W 06:12:33 10° S
ALOS 4.0 06:07:15 10° NNW 06:08:55 14° NW 06:08:55 14° NW
Cosmos 2263 Rocket 4.0 06:09:18 11° NW 06:09:46 11° NW 06:11:27 10° NNW
Cosmos 1295 Rocket 4.4 06:04:30 10° SSW 06:10:34 72° W 06:16:40 10° N
ATLAS 5 CENTAUR R/B 2.2 06:07:06 10° SSW 06:11:00 54° ESE 06:15:18 10° NE
COSMOS 2455 2.8 06:05:45 10° SW 06:11:46 74° WNW 06:17:50 10° NNE
Cosmos 1937 Rocket 4.0 06:07:18 10° SW 06:12:00 35° WNW 06:16:47 10° N
Atlas Centaur 2 4.0 06:07:23 10° WSW 06:12:01 21° SSW 06:15:58 10° SE
Cosmos 2228 Rocket 3.4 06:08:43 10° NNW 06:12:54 43° W 06:17:03 10° SSW
ATLAS CENTAUR R/B 2.1 06:11:14 15° WNW 06:13:44 30° WSW 06:17:15 10° S
MOS 1-B 4.4 06:09:27 10° NNE 06:15:18 88° ESE 06:21:07 10° SSW
PAYLOAD B 4.3 06:10:08 10° NNE 06:15:41 83° ESE 06:21:11 10° SSW
CZ-2C R/B 3.3 06:10:59 10° SSE 06:16:21 59° ENE 06:21:37 10° N
SL-24 DEB 4.3 06:14:25 10° S 06:19:09 67° W 06:23:56 10° N
BREEZE-M DEB 3.6 06:13:20 11° WNW 06:21:51 61° SW 06:24:48 10° SE
Gbstr 26 Del rocket 4.0 06:21:45 12° W 06:24:40 27° SW 06:28:07 10° SSE
Cosmos 1707 Rocket 3.5 06:20:23 10° N 06:24:44 88° W 06:29:03 10° S
ATLAS 3B R/B 3.5 06:19:57 10° NW 06:26:07 34° WSW 06:32:29 10° S
Cosmos 1125 Rocket 4.0 06:24:48 10° S 06:29:57 68° ESE 06:35:08 10° NNE
Cosmos 2150 Rocket 4.0 06:26:28 10° SSW 06:31:48 83° WNW 06:37:05 10° NNE
Cosmos 1048 Rocket 4.1 06:27:14 10° NNW 06:32:32 84° ENE 06:37:43 10° SSE
Cosmos 2298 Rocket 4.0 06:27:27 10° SSW 06:32:44 75° WNW 06:38:03 10° NNE
Cosmos 2082 Rocket 3.6 06:29:06 10° N 06:34:22 37° ENE 06:39:37 10° ESE
CZ-4B R/B 3.3 06:30:47 10° NNE 06:36:11 89° ESE 06:41:38 10° SSW
YAOGAN 6 3.2 06:35:28 10° N 06:38:37 31° WNW 06:41:43 10° SW
Cosmos 1833 Rocket 3.0 06:36:43 10° NNW 06:42:21 72° ENE 06:47:56 10° SSE
